Helicity
95 25 11 72 71 66 69 79 92 95 92 99 89 80 74 70 62 52 58 61 71 83 78 79 75 75 60 49 42 23 -6 14
14 17 11 7 52 71 87 98 105 105 97 100 89 88 70 63 55 55 51 51 61 68 70 72 70 73 62 51 46 32 10 30
12 2 -1 61 64 71 72 85 108 113 110 115 114 82 78 74 45 94 53 55 58 61 66 66 67 70 65 60 45 33 38 38
76 11 85 74 57 71 78 85 97 99 105 122 97 82 74 62 80 81 63 62 60 56 58 68 61 55 80 80 46 59 46 55
108 111 100 78 56 59 73 79 97 95 98 109 96 98 91 85 85 89 72 75 59 76 75 54 51 51 64 71 76 62 57 71
116 102 61 50 51 66 62 79 94 100 105 114 112 104 107 98 89 81 81 87 65 72 74 62 66 67 74 80 72 63 77 82
85 88 85 60 32 33 51 74 97 91 110 113 110 97 101 100 100 91 83 83 81 77 70 80 71 72 78 81 74 75 93 90
106 96 82 74 71 57 60 66 74 87 107 115 113 108 104 96 99 93 89 79 80 78 74 74 72 72 80 71 68 72 88 95
119 118 112 99 84 73 77 77 80 85 73 83 107 110 114 94 95 89 85 86 76 82 86 86 81 80 78 88 83 83 90 108
105 118 127 113 95 93 90 87 83 72 81 83 89 99 103 110 95 94 91 97 96 98 96 94 92 87 89 91 98 101 119 129
104 125 127 141 119 92 76 68 82 81 81 89 100 106 112 110 102 96 102 97 96 100 112 105 108 112 101 110 116 129 138 145
96 123 103 127 127 119 87 72 84 83 95 98 104 115 117 134 116 118 124 112 114 121 107 121 125 109 139 162 153 172 188 207
93 101 103 143 174 177 140 121 107 106 98 99 103 112 126 124 116 115 123 117 114 126 128 132 130 175 163 202 173 177 229 331
81 87 101 120 140 148 112 90 87 95 100 103 114 121 130 146 140 140 143 139 134 141 174 174 152 173 290 238 246 335 428 368
89 87 79 84 91 121 107 88 73 76 93 100 122 126 137 148 158 149 149 164 169 177 185 192 171 179 248 324 345 336 359 360
36 64 72 46 66 61 86 60 22 25 37 52 85 110 134 151 155 159 159 183 207 216 242 250 227 202 288 323 363 349 342 306
60 47 16 23 43 36 48 42 25 40 61 66 116 133 153 197 197 161 189 223 216 210 236 246 240 231 375 444 510 434 465 519
46 8 6 18 24 17 11 26 48 55 69 89 108 122 183 209 194 177 162 245 223 224 219 215 275 324 328 437 462 387 436 504
71 69 76 69 64 68 68 60 66 67 72 86 90 100 139 165 181 183 232 221 186 205 216 244 279 309 327 431 335 341 399 405
56 38 28 19 14 16 28 32 50 56 54 63 76 88 93 98 146 136 148 170 153 176 211 217 225 252 267 320 366 333 440 375
Wind_Speed
13 59 68 32 32 32 28 26 23 21 21 19 19 19 18 18 18 19 19 19 17 18 18 19 19 19 18 19 18 17 15 19
61 66 62 67 49 30 24 22 20 17 16 15 15 15 15 14 15 15 15 16 15 16 16 16 16 17 16 16 16 15 13 19
66 64 62 47 16 14 17 17 15 14 13 12 11 11 12 10 11 8 10 10 11 12 12 14 15 15 15 15 14 13 19 19
58 66 41 9 9 8 19 12 11 11 10 8 8 9 9 7 5 9 10 8 9 9 10 13 13 11 13 11 11 20 19 21
51 33 15 10 12 11 7 6 5 6 6 4 5 2 4 4 6 8 12 9 10 7 9 8 7 12 12 13 17 17 17 18
31 20 9 11 8 8 7 7 7 9 9 7 6 6 4 2 5 12 16 15 13 14 13 13 14 12 14 15 16 17 18 18
21 16 11 8 10 9 9 10 10 10 14 11 12 13 12 9 11 15 22 22 22 20 15 16 16 15 15 13 15 18 19 21
15 12 10 9 11 12 14 15 15 15 17 16 15 16 17 16 17 17 25 29 28 27 23 22 19 18 17 17 18 20 20 23
15 14 14 13 12 12 13 15 17 19 20 19 17 16 17 17 20 23 27 30 32 31 29 26 24 20 21 19 22 22 24 24
17 16 17 17 16 14 13 13 16 18 18 20 19 19 18 18 22 25 27 29 29 28 26 25 25 24 22 23 25 26 24 28
22 21 22 21 19 16 15 14 14 16 19 20 19 19 19 19 22 24 26 29 30 31 30 29 29 28 29 30 31 34 33 29
20 22 25 23 21 20 19 19 18 18 18 19 20 21 21 21 24 26 27 29 31 31 32 31 32 34 39 40 40 42 38 33
18 19 22 24 25 26 26 26 23 21 21 21 21 22 22 22 26 28 28 30 31 31 33 35 37 39 46 50 47 44 42 38
20 24 22 24 27 30 31 30 29 30 26 25 25 25 25 26 27 30 30 33 32 32 33 37 42 40 46 49 56 55 52 45
21 21 22 24 25 27 29 31 38 33 33 34 33 33 32 32 31 32 33 35 36 35 35 37 45 43 39 44 52 54 55 50
27 22 21 21 21 22 21 25 30 32 39 40 39 37 39 39 39 39 39 40 42 41 41 42 45 51 50 43 49 52 56 64
24 21 19 18 19 20 22 24 29 38 42 45 46 46 44 44 43 44 45 47 46 48 47 45 43 48 51 52 53 54 53 56
27 20 16 15 15 19 22 27 31 36 38 42 46 48 49 48 46 46 47 48 48 47 46 45 46 51 53 53 55 57 56 55
33 30 28 28 26 26 27 29 34 38 41 44 47 47 48 50 47 48 47 45 44 46 49 50 51 54 54 56 52 55 54 54
41 40 41 40 41 43 44 46 47 50 51 52 52 51 50 48 43 43 43 40 40 41 46 50 52 52 51 50 52 51 49 48
Wind_Direction
132 213 204 148 149 148 144 139 131 125 120 111 106 104 99 96 96 99 95 94 73 70 74 69 70 66 59 57 59 74 87 57
212 208 222 213 170 157 151 146 140 131 125 113 109 100 104 100 104 100 100 100 84 77 78 64 56 55 61 66 65 68 70 33
196 218 223 169 160 163 159 154 147 140 132 125 111 109 112 104 114 39 89 69 64 63 52 29 26 32 41 48 55 58 25 24
185 209 165 193 251 177 166 164 161 159 153 143 133 125 122 110 75 351 353 19 23 33 36 11 17 32 34 45 45 13 15 11
174 159 166 211 253 266 248 232 221 206 201 197 167 118 120 128 0 337 329 334 348 0 2 12 26 11 18 19 6 8 9 10
156 155 183 191 222 218 236 246 253 270 262 239 271 292 300 307 323 322 315 320 320 327 340 342 345 350 350 354 353 355 358 358
159 162 177 220 229 255 243 257 264 269 280 262 268 285 295 295 305 308 306 307 310 314 324 329 329 330 334 337 338 339 342 342
171 188 201 229 244 250 274 274 275 273 276 273 254 278 289 293 297 299 300 300 303 306 313 319 321 322 322 322 324 326 328 328
190 200 201 213 227 237 259 278 277 277 276 275 266 261 277 286 294 296 297 297 298 302 306 311 315 316 313 316 317 315 316 319
210 205 205 214 217 217 230 254 273 273 271 274 266 265 266 280 289 293 295 295 296 297 300 303 306 307 308 309 309 310 309 310
223 224 216 218 225 232 229 228 237 261 269 266 261 257 257 266 282 289 290 291 292 295 295 297 299 301 302 303 303 304 304 303
246 239 230 230 249 248 248 252 253 253 251 256 260 263 259 263 276 283 286 289 290 291 292 293 295 298 300 301 301 302 300 298
230 234 235 241 241 249 247 242 258 259 251 251 258 264 267 265 279 284 283 284 286 288 290 291 292 296 299 300 299 300 298 297
226 225 241 246 258 265 263 268 266 274 270 264 258 261 263 269 274 280 281 287 284 283 286 291 294 294 297 299 304 303 301 300
240 250 255 252 262 274 268 265 280 273 271 275 274 271 269 268 271 278 282 283 287 284 284 284 292 293 285 294 307 302 309 310
282 272 267 259 264 269 260 258 256 269 279 283 281 277 276 275 275 276 279 285 286 288 287 285 289 292 297 284 290 301 304 309
316 301 285 276 271 269 274 266 273 284 286 286 286 285 280 278 276 276 277 281 286 289 290 287 285 289 292 297 296 295 299 301
13 357 334 314 292 282 274 276 284 287 286 286 288 288 285 280 277 276 279 280 282 285 284 285 286 288 288 287 292 296 294 297
5 356 342 329 316 306 298 292 291 290 291 291 291 291 289 288 283 281 280 281 281 285 288 289 289 289 288 290 285 289 296 294
343 338 330 324 318 310 305 301 298 297 296 295 294 294 294 294 289 287 284 284 284 286 290 292 294 292 290 289 290 291 293 294